Back to catalog

STARLINK-35481

AliveCommunicationsVLEO
NORAD 66247·PAYLOAD·🇺🇸 United States

Launched Oct 29, 2025 from Cape Canaveral Space Force Station

Loading…

Next Passes (next 24 hours)

TLE

FreshSource: CelesTrak SupGP

Epoch: Sep 14, 2026, 22:36 UTC

1 66247C 25245P   26257.94215278 -.00047581  00000+0 -15303-2 0  2570
2 66247  53.1576 123.5577 0001318  85.3711 141.9528 15.31721833    17

Track STARLINK-35481 in real time with AllMySat

Download on the App Store